Flag for Liechtenstein Weather past 2 weeks in Vaduz, Liechtenstein

Now
36 °F

Partly sunny.


Feels Like: 32 °F
Forecast: 22 / 38 °F
Wind: 5 mph from Southeast

Location: Vaduz

Current Time: Jan 31, 2015 at 2:17:21 PM

Latest Report: Jan 31, 2015 at 1:00 PM


Visibility: 6 mi

Pressure: 29.12 "Hg

Humidity: 55%

Dew point: 21 °F

Location of VaduzLocation

Historic Weather in Vaduz — Graph

°F

Vaduz temperature yesterday

Maximum temperature yesterday: 47 °F (at 1:00 AM)
Minimum temperature yesterday: 32 °F (at 5:00 PM)
Average temperature yesterday: 36 °F

Past Weeks' High & Low Weather Summary

 TemperatureHumidityPressure
High60 °F (Jan 16, 2:00 PM)98% (Jan 17, 9:00 AM)30.48 "Hg (Jan 17, 9:00 AM)
Low28 °F (Jan 26, 9:00 AM)35% (Jan 16, 2:00 PM)28.79 "Hg (Jan 30, 1:00 AM)
Average34 °F80%29.93 "Hg
* Reported Jan 16 1:00 PM — Jan 31 1:00 PM, Vaduz, Weather by CustomWeather, © 2014

Note: Actual official high and low records may vary slightly from our data, if they occured in-between our weather recording intervals... More about our weather records

Advertising

Vaduz weather history for previous 24 hours

 ConditionsComfort  
Time TempWeatherWind HumidityBarometerVisibility
1:00 PM
Jan 31
36 °FPartly sunny.5 mph55%29.12 "Hg6 mi
12:00 PM35 °FChilly.5 mph59%29.15 "HgN/A
11:00 AM33 °FChilly.6 mph63%29.15 "HgN/A
10:00 AM31 °FPartly sunny.6 mph71%29.15 "Hg6 mi
9:00 AM30 °FChilly.5 mph83%29.18 "HgN/A
8:00 AM30 °FChilly.3 mph90%29.18 "HgN/A
7:00 AM30 °FChilly.2 mph91%29.15 "HgN/A
6:00 AM31 °FChilly.1 mph85%29.12 "HgN/A
5:00 AM30 °FChilly.3 mph94%29.12 "HgN/A
3:00 AM31 °FChilly.6 mph87%29.09 "HgN/A
2:00 AM32 °FChilly.6 mph80%29.09 "HgN/A
1:00 AM32 °FLight snow. Low clouds.6 mph83%29.06 "Hg3 mi
12:00 AM32 °FChilly.6 mph76%29.06 "HgN/A
11:00 PM
Jan 30
33 °FChilly.7 mph71%29.03 "HgN/A
10:00 PM33 °FChilly.3 mph74%29.00 "HgN/A
9:00 PM33 °FChilly.5 mph74%29.00 "HgN/A
8:00 PM33 °FChilly.3 mph72%29.00 "HgN/A
7:00 PM33 °FLight snow. Low clouds.5 mph70%29.00 "Hg3 mi
6:00 PM33 °FChilly.5 mph70%29.00 "HgN/A
5:00 PM32 °FChilly.1 mph82%29.03 "HgN/A
4:00 PM33 °FFog.3 mph74%29.03 "Hg3 mi
3:00 PM33 °FChilly.3 mph70%29.00 "HgN/A
2:00 PM34 °FChilly.7 mph68%29.03 "HgN/A
Weather by CustomWeather, © 2014

See weather overviewHow to use our weather pages